Beaufort, NC

3:31 PM EST on December 09, 2019 (GMT -0500)
Smith

Weather History for KMRH - October, 2019

Change the Weather History Date:

Wednesday, October 16, 2019

  Actual Average Record
Temperature  
Mean Temperature 70 °F -  
Max Temperature 77 °F 76 °F 84 °F (1990)
Min Temperature 62 °F 55 °F 41 °F (1978)
Cooling Degree Days 4    
Growing Degree Days 20 (Base 50)    
Moisture  
Dew Point 68 °F    
Average Humidity 91    
Maximum Humidity 100    
Minimum Humidity 60    
Precipitation  
Precipitation 0.88 in - - ()
Sea Level Pressure  
Sea Level Pressure 29.73 in    
Wind  
Wind Speed 13 mph (SSW)    
Max Wind Speed 24 mph    
Max Gust Speed 40 mph    
Visibility 7 miles    
Events Rain    
Averages and records for this station are not official NWS values.
T = Trace of Precipitation, MM = Missing Value Source: NWS Daily Summary

Daily Weather History Graph

Daily Weather History Graph

Search for Another Location

Airport or City:

Astronomy

Oct. 16, 2019 Rise Set
Actual Time 7:12 AM EDT 6:30 PM EDT
Civil Twilight 6:47 AM EDT 6:56 PM EDT
Nautical Twilight 6:18 AM EDT 7:25 PM EDT
Astronomical Twilight 5:48 AM EDT 7:54 PM EDT
Moon 8:28 PM EDT (10/16) 9:36 AM EDT (10/16)
Length of Visible Light 12h 08m
Length of Day
11h 18m
Waning Gibbous, 93% of the Moon is Illuminated
Oct 16
Waning Gibbous
Oct 21
Last Quarter
Oct 27
New
Nov 4
First Quarter
Nov 12
Full

Hourly Weather History & Observations

Time (EDT) Temp. Dew Point Humidity Pressure Visibility Wind Dir Wind Speed Gust Speed Precip Events Conditions
12:58 AM 66.0 °F 64.9 °F 96% 29.99 in 10.0 mi ENE 4.6 mph - N/A   Clear
1:58 AM 66.9 °F 64.9 °F 93% 29.96 in 10.0 mi East 3.5 mph - N/A   Clear
2:58 AM 66.9 °F 64.9 °F 93% 29.94 in 10.0 mi ENE 3.5 mph - N/A   Clear
3:58 AM 68.0 °F 66.9 °F 96% 29.92 in 10.0 mi Calm Calm - N/A   Clear
4:58 AM 69.1 °F 68.0 °F 96% 29.89 in 10.0 mi East 4.6 mph - N/A   Overcast
5:58 AM 73.0 °F 71.1 °F 93% 29.88 in 10.0 mi ESE 5.8 mph - 0.02 in Rain Light Rain
6:58 AM 68.0 °F 64.0 °F 87% 29.86 in 4.0 mi SSE 11.5 mph 29.9 mph 0.10 in Rain Rain
7:17 AM 68.0 °F 66.0 °F 93% 29.86 in 5.0 mi WSW 10.4 mph - 0.10 in Rain Rain
7:32 AM 69.1 °F 68.0 °F 96% 29.86 in 3.0 mi SW 18.4 mph 24.2 mph 0.21 in Rain Light Rain
7:38 AM 69.1 °F 68.0 °F 96% 29.85 in 2.0 mi SSW 19.6 mph 26.5 mph 0.24 in Rain Heavy Rain
7:48 AM 69.1 °F 68.0 °F 96% 29.85 in 4.0 mi SSW 15.0 mph 24.2 mph 0.26 in Rain Rain
7:58 AM 70.0 °F 68.0 °F 93% 29.85 in 7.0 mi SSW 15.0 mph - 0.26 in Rain Light Rain
8:58 AM 72.0 °F 66.0 °F 81% 29.83 in 10.0 mi SSW 19.6 mph - 0.01 in   Overcast
9:58 AM 71.1 °F 66.9 °F 87% 29.80 in 10.0 mi South 17.3 mph - 0.00 in Rain Light Rain
10:34 AM 71.1 °F 68.0 °F 90% 29.78 in 7.0 mi South 13.8 mph 24.2 mph 0.02 in Rain Rain
10:58 AM 71.1 °F 69.1 °F 93% 29.77 in 8.0 mi South 16.1 mph 25.3 mph 0.04 in Rain Light Rain
11:14 AM 72.0 °F 70.0 °F 93% 29.75 in 5.0 mi South 18.4 mph 25.3 mph 0.03 in Rain Rain
11:51 AM 73.0 °F 70.0 °F 90% 29.72 in 10.0 mi South 19.6 mph 31.1 mph 0.05 in Rain Light Rain
11:58 AM 73.0 °F 70.0 °F 90% 29.72 in 10.0 mi South 19.6 mph 31.1 mph 0.05 in Rain Light Rain
12:15 PM 72.0 °F 70.0 °F 93% 29.71 in 8.0 mi South 21.9 mph 34.5 mph 0.01 in Rain Light Rain
12:43 PM 72.0 °F 71.1 °F 97% 29.68 in 2.5 mi South 18.4 mph 28.8 mph 0.08 in Rain Heavy Rain
12:47 PM 71.1 °F 71.1 °F 100% 29.67 in 1.8 mi South 16.1 mph 28.8 mph 0.10 in Rain Heavy Rain
12:58 PM 71.1 °F 70.0 °F 96% 29.67 in 1.2 mi South 23.0 mph 35.7 mph 0.18 in Rain Heavy Rain
1:05 PM 71.1 °F 70.0 °F 96% 29.66 in 1.2 mi South 21.9 mph 35.7 mph 0.05 in Rain Heavy Rain
1:33 PM 71.1 °F 70.0 °F 96% 29.62 in 2.0 mi South 19.6 mph 27.6 mph 0.18 in Rain Light Rain
1:45 PM 72.0 °F 71.1 °F 97% 29.61 in 3.0 mi South 24.2 mph 36.8 mph 0.19 in Rain Light Rain
1:51 PM 72.0 °F 71.1 °F 97% 29.60 in 2.5 mi SSW 23.0 mph 40.3 mph 0.20 in Rain Light Rain
1:56 PM 71.6 °F 71.6 °F 100% 29.60 in 3.0 mi SSW 23.0 mph 40.3 mph 0.20 in Rain Rain
1:58 PM 72.0 °F 71.1 °F 97% 29.60 in 3.0 mi SSW 23.0 mph 35.7 mph 0.20 in Rain Light Rain
2:36 PM 73.9 °F 72.0 °F 93% 29.56 in 10.0 mi South 19.6 mph 29.9 mph 0.01 in   Mostly Cloudy
2:58 PM 75.9 °F 73.0 °F 91% 29.56 in 10.0 mi SW 17.3 mph 29.9 mph 0.01 in   Overcast
3:33 PM 75.9 °F 72.0 °F 87% 29.54 in 10.0 mi SW 20.7 mph 28.8 mph N/A   Overcast
3:58 PM 75.9 °F 72.0 °F 87% 29.55 in 10.0 mi WSW 16.1 mph 24.2 mph N/A   Mostly Cloudy
4:58 PM 75.9 °F 70.0 °F 82% 29.54 in 10.0 mi WSW 20.7 mph 32.2 mph N/A   Overcast
5:58 PM 73.9 °F 69.1 °F 85% 29.55 in 10.0 mi West 18.4 mph 26.5 mph 0.00 in   Mostly Cloudy
6:58 PM 71.1 °F 68.0 °F 90% 29.59 in 10.0 mi WNW 13.8 mph - 0.01 in   Partly Cloudy
7:58 PM 69.1 °F 64.0 °F 84% 29.63 in 10.0 mi WNW 18.4 mph - N/A   Clear
8:58 PM 66.9 °F 62.1 °F 84% 29.67 in 10.0 mi WNW 19.6 mph - N/A   Clear
9:58 PM 64.9 °F 61.0 °F 87% 29.68 in 10.0 mi WNW 12.7 mph - N/A   Clear
10:58 PM 64.9 °F 61.0 °F 87% 29.72 in 10.0 mi WNW 13.8 mph - N/A   Mostly Cloudy
11:07 PM 64.9 °F 61.0 °F 87% 29.72 in 10.0 mi NW 13.8 mph - N/A   Mostly Cloudy
11:15 PM 64.0 °F 60.1 °F 87% 29.73 in 10.0 mi NW 16.1 mph 23.0 mph N/A   Mostly Cloudy
11:58 PM 62.1 °F 48.0 °F 60% 29.75 in 10.0 mi NW 20.7 mph 29.9 mph N/A   Clear